Location: Chavannes
(47.1090°N, 0.2226°W)
Time: 03:43:09
(UTC+00:00)

Cosmos 1535 Rocket - Pass Details

Date: 16 October 2021
Orbit: 948 x 1004 km, 83.0° (Epoch: 03 December)

Event Time Altitude Azimuth Distance (km) Brightness Sun altitude
Rises 18:53:37 0° 177° (S) 3,643 7.4 -18.1°
Reaches altitude 10° 18:56:06 10° 175° (S) 2,709 6.7 -18.6°
Maximum altitude 19:02:15 67° 94° (E) 1,062 4.4 -19.6°
Drops below altitude 10° 19:08:31 10° 13° (NNE) 2,765 6.8 -20.7°
Sets 19:11:05 0° 11° (NNE) 3,725 7.5 -21.1°
